contact:dominique.lefevre@mio.osupytheas.fr, maurice.libes@osupytheas.fr, didier.mallarino@osupytheas.fr
Project:EMSO http://www.emso-fr.org/EMSO-France
Depth: 2436.0 m
Title:EMSO Ligure Ouest : Data MII capteur MICROCAT
DateTime_Computer,Latitude,Longitude,Temperature,Conductivity,Pressure,DateTime_Instrument
DateTime_Computer,Latitude,Longitude,degC,S m-1,dbar,DateTime_Instrument
2022-03-24T10:43:08Z,42.805,6.029,13.3046,4.60117,2470.52,2022-3-24T12:44:44Z
2022-03-24T10:46:11Z,42.805,6.029,13.3061,4.60103,2470.53,2022-3-24T12:47:47Z
2022-03-24T10:49:14Z,42.805,6.029,13.3058,4.60119,2470.544,2022-3-24T12:50:50Z
2022-03-24T10:52:18Z,42.805,6.029,13.3059,4.60120,2470.507,2022-3-24T12:53:53Z
2022-03-24T10:55:21Z,42.805,6.029,13.3027,4.60134,2470.507,2022-3-24T12:56:57Z
2022-03-24T10:58:24Z,42.805,6.029,13.3024,4.60123,2470.47,2022-3-24T13:00:00Z
2022-03-24T11:01:27Z,42.805,6.029,13.3036,4.60108,2470.483,2022-3-24T13:03:03Z
2022-03-24T11:04:30Z,42.805,6.029,13.3045,4.60084,2470.483,2022-3-24T13:06:06Z
2022-03-24T11:07:33Z,42.805,6.029,13.3034,4.60106,2470.52,2022-3-24T13:09:09Z
2022-03-24T11:10:36Z,42.805,6.029,13.3006,4.60102,2470.483,2022-3-24T13:12:12Z
2022-03-24T11:13:39Z,42.805,6.029,13.3015,4.60111,2470.507,2022-3-24T13:15:15Z
2022-03-24T11:16:43Z,42.805,6.029,13.3038,4.60093,2470.52,2022-3-24T13:18:18Z
2022-03-24T11:19:46Z,42.805,6.029,13.3032,4.60125,2470.52,2022-3-24T13:21:22Z
2022-03-24T11:22:49Z,42.805,6.029,13.3034,4.60127,2470.497,2022-3-24T13:24:25Z
2022-03-24T11:25:52Z,42.805,6.029,13.3052,4.60109,2470.53,2022-3-24T13:27:28Z
2022-03-24T11:28:55Z,42.805,6.029,13.3036,4.60125,2470.483,2022-3-24T13:30:31Z
2022-03-24T11:31:58Z,42.805,6.029,13.3034,4.60140,2470.483,2022-3-24T13:33:34Z
2022-03-24T11:35:01Z,42.805,6.029,13.3024,4.60118,2470.507,2022-3-24T13:36:37Z
2022-03-24T11:38:04Z,42.805,6.029,13.3039,4.60123,2470.497,2022-3-24T13:39:40Z
2022-03-24T11:41:08Z,42.805,6.029,13.3007,4.60126,2470.497,2022-3-24T13:42:44Z
2022-03-24T11:44:11Z,42.805,6.029,13.3039,4.60117,2470.46,2022-3-24T13:45:47Z
2022-03-24T11:47:14Z,42.805,6.029,13.3043,4.60086,2470.497,2022-3-24T13:48:50Z
2022-03-24T11:50:17Z,42.805,6.029,13.3056,4.60108,2470.52,2022-3-24T13:51:53Z
2022-03-24T11:53:20Z,42.805,6.029,13.3046,4.60096,2470.483,2022-3-24T13:54:56Z
2022-03-24T11:56:23Z,42.805,6.029,13.3051,4.60101,2470.474,2022-3-24T13:57:59Z
2022-03-24T11:59:26Z,42.805,6.029,13.3057,4.60104,2470.46,2022-3-24T14:01:02Z
2022-03-24T12:02:29Z,42.805,6.029,13.3030,4.60106,2470.474,2022-3-24T14:04:05Z
2022-03-24T12:05:32Z,42.805,6.029,13.3031,4.60107,2470.497,2022-3-24T14:07:09Z
2022-03-24T12:08:35Z,42.805,6.029,13.3069,4.60080,2470.52,2022-3-24T14:10:12Z
2022-03-24T12:11:38Z,42.805,6.029,13.3051,4.60062,2470.474,2022-3-24T14:13:15Z
2022-03-24T12:14:41Z,42.805,6.029,13.3021,4.60108,2470.483,2022-3-24T14:16:18Z
2022-03-24T12:17:44Z,42.805,6.029,13.3035,4.60141,2470.483,2022-3-24T14:19:21Z
2022-03-24T12:20:48Z,42.805,6.029,13.3039,4.60114,2470.474,2022-3-24T14:22:24Z
2022-03-24T12:23:51Z,42.805,6.029,13.3030,4.60088,2470.437,2022-3-24T14:25:27Z
2022-03-24T12:26:54Z,42.805,6.029,13.3027,4.60098,2470.474,2022-3-24T14:28:30Z
2022-03-24T12:29:57Z,42.805,6.029,13.3046,4.60127,2470.46,2022-3-24T14:31:34Z
2022-03-24T12:33:00Z,42.805,6.029,13.3043,4.60132,2470.474,2022-3-24T14:34:37Z
2022-03-24T12:36:03Z,42.805,6.029,13.3032,4.60132,2470.437,2022-3-24T14:37:40Z
2022-03-24T12:39:06Z,42.805,6.029,13.3044,4.60097,2470.497,2022-3-24T14:40:43Z
2022-03-24T12:42:09Z,42.805,6.029,13.3030,4.60082,2470.474,2022-3-24T14:43:46Z
2022-03-24T12:45:13Z,42.805,6.029,13.3043,4.60068,2470.437,2022-3-24T14:46:49Z
2022-03-24T12:48:16Z,42.805,6.029,13.3041,4.60086,2470.437,2022-3-24T14:49:52Z
2022-03-24T12:51:19Z,42.805,6.029,13.3034,4.60068,2470.45,2022-3-24T14:52:55Z
2022-03-24T12:54:22Z,42.805,6.029,13.3034,4.60094,2470.45,2022-3-24T14:55:59Z
2022-03-24T12:57:25Z,42.805,6.029,13.3043,4.60082,2470.45,2022-3-24T14:59:02Z
2022-03-24T13:00:28Z,42.805,6.029,13.3038,4.60067,2470.437,2022-3-24T15:02:05Z
2022-03-24T13:03:31Z,42.805,6.029,13.3051,4.60059,2470.437,2022-3-24T15:05:08Z
2022-03-24T13:06:34Z,42.805,6.029,13.3052,4.60057,2470.437,2022-3-24T15:08:11Z
2022-03-24T13:09:38Z,42.805,6.029,13.3037,4.60052,2470.45,2022-3-24T15:11:14Z
2022-03-24T13:12:41Z,42.805,6.029,13.3036,4.60050,2470.427,2022-3-24T15:14:17Z
2022-03-24T13:15:44Z,42.805,6.029,13.3037,4.60072,2470.46,2022-3-24T15:17:20Z
2022-03-24T13:18:47Z,42.805,6.029,13.3037,4.60052,2470.413,2022-3-24T15:20:24Z
2022-03-24T13:21:50Z,42.805,6.029,13.3038,4.60061,2470.427,2022-3-24T15:23:27Z
2022-03-24T13:24:53Z,42.805,6.029,13.3029,4.60080,2470.437,2022-3-24T15:26:30Z
2022-03-24T13:27:56Z,42.805,6.029,13.3037,4.60073,2470.413,2022-3-24T15:29:33Z
2022-03-24T13:30:59Z,42.805,6.029,13.3039,4.60073,2470.45,2022-3-24T15:32:36Z
2022-03-24T13:34:03Z,42.805,6.029,13.3019,4.60090,2470.437,2022-3-24T15:35:39Z
2022-03-24T13:37:06Z,42.805,6.029,13.3036,4.60074,2470.45,2022-3-24T15:38:42Z
2022-03-24T13:40:09Z,42.805,6.029,13.3036,4.60097,2470.474,2022-3-24T15:41:45Z
2022-03-24T13:43:12Z,42.805,6.029,13.3034,4.60069,2470.39,2022-3-24T15:44:49Z
2022-03-24T13:46:15Z,42.805,6.029,13.3027,4.60074,2470.413,2022-3-24T15:47:52Z
2022-03-24T13:49:18Z,42.805,6.029,13.3052,4.60058,2470.474,2022-3-24T15:50:55Z
2022-03-24T13:52:21Z,42.805,6.029,13.3050,4.60079,2470.45,2022-3-24T15:53:58Z
2022-03-24T13:55:24Z,42.805,6.029,13.3038,4.60073,2470.45,2022-3-24T15:57:01Z
2022-03-24T13:58:28Z,42.805,6.029,13.3036,4.60113,2470.413,2022-3-24T16:00:04Z
2022-03-24T14:01:31Z,42.805,6.029,13.3068,4.60073,2470.45,2022-3-24T16:03:07Z
2022-03-24T14:04:34Z,42.805,6.029,13.3024,4.60045,2470.427,2022-3-24T16:06:10Z
2022-03-24T14:07:37Z,42.805,6.029,13.3021,4.60054,2470.39,2022-3-24T16:09:14Z
2022-03-24T14:10:40Z,42.805,6.029,13.3045,4.60057,2470.404,2022-3-24T16:12:17Z
2022-03-24T14:13:43Z,42.805,6.029,13.3035,4.60062,2470.45,2022-3-24T16:15:20Z
2022-03-24T14:16:46Z,42.805,6.029,13.3032,4.60068,2470.45,2022-3-24T16:18:23Z
2022-03-24T14:19:49Z,42.805,6.029,13.3029,4.60097,2470.427,2022-3-24T16:21:26Z
2022-03-24T14:22:53Z,42.805,6.029,13.3045,4.60054,2470.413,2022-3-24T16:24:29Z
2022-03-24T14:25:56Z,42.805,6.029,13.3036,4.60072,2470.427,2022-3-24T16:27:32Z
2022-03-24T14:28:59Z,42.805,6.029,13.3047,4.60070,2470.413,2022-3-24T16:30:35Z
2022-03-24T14:32:02Z,42.805,6.029,13.3053,4.60069,2470.413,2022-3-24T16:33:39Z
2022-03-24T14:35:05Z,42.805,6.029,13.3051,4.60069,2470.437,2022-3-24T16:36:42Z
2022-03-24T14:38:08Z,42.805,6.029,13.3055,4.60081,2470.39,2022-3-24T16:39:45Z
2022-03-24T14:41:11Z,42.805,6.029,13.3060,4.60075,2470.427,2022-3-24T16:42:48Z
2022-03-24T14:44:14Z,42.805,6.029,13.3041,4.60079,2470.404,2022-3-24T16:45:51Z
2022-03-24T14:47:18Z,42.805,6.029,13.3056,4.60073,2470.437,2022-3-24T16:48:54Z
2022-03-24T14:50:21Z,42.805,6.029,13.3042,4.60060,2470.404,2022-3-24T16:51:57Z
2022-03-24T14:53:24Z,42.805,6.029,13.3046,4.60057,2470.39,2022-3-24T16:55:00Z
2022-03-24T14:56:27Z,42.805,6.029,13.3058,4.60069,2470.413,2022-3-24T16:58:04Z
2022-03-24T14:59:30Z,42.805,6.029,13.3029,4.60097,2470.427,2022-3-24T17:01:07Z
2022-03-24T15:02:33Z,42.805,6.029,13.3039,4.60067,2470.427,2022-3-24T17:04:10Z
2022-03-24T15:05:36Z,42.805,6.029,13.3036,4.60059,2470.45,2022-3-24T17:07:13Z
2022-03-24T15:08:40Z,42.805,6.029,13.3034,4.60049,2470.45,2022-3-24T17:10:16Z
2022-03-24T15:11:43Z,42.805,6.029,13.3056,4.60067,2470.413,2022-3-24T17:13:19Z
2022-03-24T15:14:46Z,42.805,6.029,13.3059,4.60060,2470.413,2022-3-24T17:16:22Z
2022-03-24T15:17:49Z,42.805,6.029,13.3046,4.60067,2470.45,2022-3-24T17:19:26Z
2022-03-24T15:20:52Z,42.805,6.029,13.3039,4.60072,2470.427,2022-3-24T17:22:29Z
2022-03-24T15:23:55Z,42.805,6.029,13.3042,4.60073,2470.427,2022-3-24T17:25:32Z
2022-03-24T15:26:58Z,42.805,6.029,13.3050,4.60072,2470.413,2022-3-24T17:28:35Z
2022-03-24T15:30:01Z,42.805,6.029,13.3041,4.60109,2470.413,2022-3-24T17:31:38Z
2022-03-24T15:33:05Z,42.805,6.029,13.3076,4.60069,2470.39,2022-3-24T17:34:41Z
2022-03-24T15:36:08Z,42.805,6.029,13.3048,4.60081,2470.437,2022-3-24T17:37:44Z
2022-03-24T15:39:11Z,42.805,6.029,13.3036,4.60052,2470.413,2022-3-24T17:40:47Z
2022-03-24T15:42:14Z,42.805,6.029,13.3080,4.60074,2470.437,2022-3-24T17:43:51Z
2022-03-24T15:45:17Z,42.805,6.029,13.3036,4.60059,2470.404,2022-3-24T17:46:54Z
2022-03-24T15:48:20Z,42.805,6.029,13.3061,4.60064,2470.39,2022-3-24T17:49:57Z
2022-03-24T15:51:23Z,42.805,6.029,13.3061,4.60057,2470.39,2022-3-24T17:53:00Z
2022-03-24T15:54:26Z,42.805,6.029,13.3073,4.60074,2470.404,2022-3-24T17:56:03Z
2022-03-24T15:57:30Z,42.805,6.029,13.3056,4.60059,2470.38,2022-3-24T17:59:06Z
2022-03-24T16:00:33Z,42.805,6.029,13.3046,4.60077,2470.413,2022-3-24T18:02:09Z
2022-03-24T16:03:36Z,42.805,6.029,13.3026,4.60084,2470.413,2022-3-24T18:05:12Z
2022-03-24T16:06:39Z,42.805,6.029,13.3041,4.60071,2470.404,2022-3-24T18:08:16Z
2022-03-24T16:09:42Z,42.805,6.029,13.3039,4.60075,2470.427,2022-3-24T18:11:19Z
2022-03-24T16:12:45Z,42.805,6.029,13.3057,4.60060,2470.404,2022-3-24T18:14:22Z
2022-03-24T16:15:48Z,42.805,6.029,13.3077,4.60069,2470.404,2022-3-24T18:17:25Z
2022-03-24T16:18:51Z,42.805,6.029,13.3076,4.60097,2470.417,2022-3-24T18:20:28Z
2022-03-24T16:21:55Z,42.805,6.029,13.3076,4.60083,2470.413,2022-3-24T18:23:31Z
2022-03-24T16:24:58Z,42.805,6.029,13.3073,4.60064,2470.404,2022-3-24T18:26:34Z
2022-03-24T16:28:01Z,42.805,6.029,13.3078,4.60062,2470.413,2022-3-24T18:29:37Z
2022-03-24T16:31:04Z,42.805,6.029,13.3067,4.60064,2470.427,2022-3-24T18:32:41Z
2022-03-24T16:34:07Z,42.805,6.029,13.3065,4.60054,2470.427,2022-3-24T18:35:44Z
2022-03-24T16:37:10Z,42.805,6.029,13.3088,4.60066,2470.39,2022-3-24T18:38:47Z
2022-03-24T16:40:13Z,42.805,6.029,13.3088,4.60079,2470.427,2022-3-24T18:41:50Z
2022-03-24T16:43:17Z,42.805,6.029,13.3071,4.60058,2470.413,2022-3-24T18:44:53Z
2022-03-24T16:46:20Z,42.805,6.029,13.3078,4.60054,2470.427,2022-3-24T18:47:56Z
2022-03-24T16:49:23Z,42.805,6.029,13.3070,4.60067,2470.404,2022-3-24T18:50:59Z
2022-03-24T16:52:26Z,42.805,6.029,13.3057,4.60068,2470.366,2022-3-24T18:54:02Z
2022-03-24T16:55:29Z,42.805,6.029,13.3070,4.60058,2470.39,2022-3-24T18:57:06Z
2022-03-24T16:58:32Z,42.805,6.029,13.3075,4.60077,2470.404,2022-3-24T19:00:09Z
2022-03-24T17:01:35Z,42.805,6.029,13.3079,4.60061,2470.366,2022-3-24T19:03:12Z
2022-03-24T17:04:38Z,42.805,6.029,13.3077,4.60062,2470.39,2022-3-24T19:06:15Z
2022-03-24T17:07:41Z,42.805,6.029,13.3056,4.60076,2470.38,2022-3-24T19:09:18Z
2022-03-24T17:10:45Z,42.805,6.029,13.3040,4.60084,2470.38,2022-3-24T19:12:21Z
2022-03-24T17:13:48Z,42.805,6.029,13.3043,4.60077,2470.427,2022-3-24T19:15:24Z
2022-03-24T17:16:51Z,42.805,6.029,13.3063,4.60094,2470.39,2022-3-24T19:18:27Z
2022-03-24T17:19:54Z,42.805,6.029,13.3065,4.60059,2470.39,2022-3-24T19:21:31Z
2022-03-24T17:22:57Z,42.805,6.029,13.3057,4.60054,2470.404,2022-3-24T19:24:34Z
2022-03-24T17:26:00Z,42.805,6.029,13.3066,4.60061,2470.404,2022-3-24T19:27:37Z
2022-03-24T17:29:03Z,42.805,6.029,13.3054,4.60076,2470.404,2022-3-24T19:30:40Z
2022-03-24T17:32:07Z,42.805,6.029,13.3058,4.60070,2470.404,2022-3-24T19:33:43Z
2022-03-24T17:35:10Z,42.805,6.029,13.3063,4.60084,2470.38,2022-3-24T19:36:46Z
2022-03-24T17:38:13Z,42.805,6.029,13.3053,4.60067,2470.357,2022-3-24T19:39:49Z
2022-03-24T17:41:16Z,42.805,6.029,13.3049,4.60075,2470.404,2022-3-24T19:42:53Z
2022-03-24T17:44:19Z,42.805,6.029,13.3049,4.60081,2470.404,2022-3-24T19:45:56Z
2022-03-24T17:47:22Z,42.805,6.029,13.3044,4.60077,2470.343,2022-3-24T19:48:59Z
2022-03-24T17:50:25Z,42.805,6.029,13.3035,4.60097,2470.39,2022-3-24T19:52:02Z
2022-03-24T17:53:28Z,42.805,6.029,13.3039,4.60088,2470.404,2022-3-24T19:55:05Z
2022-03-24T17:56:32Z,42.805,6.029,13.3030,4.60081,2470.366,2022-3-24T19:58:08Z
2022-03-24T17:59:35Z,42.805,6.029,13.3028,4.60089,2470.343,2022-3-24T20:01:11Z
2022-03-24T18:02:38Z,42.805,6.029,13.3029,4.60076,2470.38,2022-3-24T20:04:14Z
2022-03-24T18:05:41Z,42.805,6.029,13.3076,4.60095,2470.38,2022-3-24T20:07:18Z
2022-03-24T18:08:44Z,42.805,6.029,13.3069,4.60072,2470.366,2022-3-24T20:10:21Z
2022-03-24T18:11:47Z,42.805,6.029,13.3051,4.60069,2470.366,2022-3-24T20:13:24Z
2022-03-24T18:14:50Z,42.805,6.029,13.3030,4.60067,2470.39,2022-3-24T20:16:27Z
2022-03-24T18:17:53Z,42.805,6.029,13.3024,4.60054,2470.38,2022-3-24T20:19:30Z
2022-03-24T18:20:57Z,42.805,6.029,13.3021,4.60084,2470.366,2022-3-24T20:22:33Z
2022-03-24T18:24:00Z,42.805,6.029,13.3029,4.60108,2470.38,2022-3-24T20:25:36Z
2022-03-24T18:27:03Z,42.805,6.029,13.3029,4.60089,2470.38,2022-3-24T20:28:39Z
2022-03-24T18:30:06Z,42.805,6.029,13.3058,4.60060,2470.343,2022-3-24T20:31:43Z
2022-03-24T18:33:09Z,42.805,6.029,13.3056,4.60053,2470.38,2022-3-24T20:34:46Z
2022-03-24T18:36:12Z,42.805,6.029,13.3026,4.60055,2470.38,2022-3-24T20:37:49Z
2022-03-24T18:39:15Z,42.805,6.029,13.3037,4.60061,2470.343,2022-3-24T20:40:52Z
2022-03-24T18:42:18Z,42.805,6.029,13.3056,4.60073,2470.38,2022-3-24T20:43:55Z
2022-03-24T18:45:22Z,42.805,6.029,13.3044,4.60049,2470.404,2022-3-24T20:46:58Z
2022-03-24T18:48:25Z,42.805,6.029,13.3046,4.60066,2470.38,2022-3-24T20:50:01Z
2022-03-24T18:51:28Z,42.805,6.029,13.3043,4.60069,2470.357,2022-3-24T20:53:04Z
2022-03-24T18:54:31Z,42.805,6.029,13.3034,4.60079,2470.39,2022-3-24T20:56:08Z
2022-03-24T18:57:34Z,42.805,6.029,13.3056,4.60063,2470.366,2022-3-24T20:59:11Z
2022-03-24T19:00:37Z,42.805,6.029,13.3058,4.60062,2470.39,2022-3-24T21:02:14Z
2022-03-24T19:03:40Z,42.805,6.029,13.3063,4.60066,2470.366,2022-3-24T21:05:17Z
2022-03-24T19:06:43Z,42.805,6.029,13.3021,4.60079,2470.38,2022-3-24T21:08:20Z
2022-03-24T19:09:47Z,42.805,6.029,13.3041,4.60073,2470.404,2022-3-24T21:11:23Z
2022-03-24T19:12:50Z,42.805,6.029,13.3062,4.60085,2470.39,2022-3-24T21:14:26Z
2022-03-24T19:15:53Z,42.805,6.029,13.3049,4.60069,2470.366,2022-3-24T21:17:29Z
2022-03-24T19:18:56Z,42.805,6.029,13.3041,4.60079,2470.404,2022-3-24T21:20:33Z
2022-03-24T19:21:59Z,42.805,6.029,13.3026,4.60078,2470.38,2022-3-24T21:23:36Z
2022-03-24T19:25:02Z,42.805,6.029,13.3026,4.60092,2470.39,2022-3-24T21:26:39Z
2022-03-24T19:28:05Z,42.805,6.029,13.3043,4.60099,2470.39,2022-3-24T21:29:42Z
2022-03-24T19:31:08Z,42.805,6.029,13.3041,4.60081,2470.39,2022-3-24T21:32:45Z
2022-03-24T19:34:12Z,42.805,6.029,13.3032,4.60077,2470.413,2022-3-24T21:35:48Z
2022-03-24T19:37:15Z,42.805,6.029,13.3024,4.60076,2470.38,2022-3-24T21:38:51Z
2022-03-24T19:40:18Z,42.805,6.029,13.3029,4.60075,2470.427,2022-3-24T21:41:54Z
2022-03-24T19:43:21Z,42.805,6.029,13.3034,4.60070,2470.413,2022-3-24T21:44:58Z
2022-03-24T19:46:24Z,42.805,6.029,13.3055,4.60062,2470.39,2022-3-24T21:48:01Z
2022-03-24T19:49:27Z,42.805,6.029,13.3045,4.60049,2470.404,2022-3-24T21:51:04Z
2022-03-24T19:52:30Z,42.805,6.029,13.3045,4.60056,2470.404,2022-3-24T21:54:07Z
2022-03-24T19:55:33Z,42.805,6.029,13.3051,4.60052,2470.404,2022-3-24T21:57:10Z
2022-03-24T19:58:37Z,42.805,6.029,13.3041,4.60066,2470.413,2022-3-24T22:00:13Z
2022-03-24T20:01:40Z,42.805,6.029,13.3044,4.60067,2470.413,2022-3-24T22:03:16Z
2022-03-24T20:04:43Z,42.805,6.029,13.3048,4.60060,2470.404,2022-3-24T22:06:19Z
2022-03-24T20:07:46Z,42.805,6.029,13.3051,4.60079,2470.437,2022-3-24T22:09:23Z
2022-03-24T20:10:49Z,42.805,6.029,13.3054,4.60084,2470.413,2022-3-24T22:12:26Z
2022-03-24T20:13:52Z,42.805,6.029,13.3070,4.60086,2470.413,2022-3-24T22:15:29Z
2022-03-24T20:16:55Z,42.805,6.029,13.3058,4.60067,2470.45,2022-3-24T22:18:32Z
2022-03-24T20:19:58Z,42.805,6.029,13.3056,4.60081,2470.437,2022-3-24T22:21:35Z
2022-03-24T20:23:02Z,42.805,6.029,13.3047,4.60062,2470.427,2022-3-24T22:24:38Z
2022-03-24T20:26:05Z,42.805,6.029,13.3019,4.60067,2470.474,2022-3-24T22:27:41Z
2022-03-24T20:29:08Z,42.805,6.029,13.3022,4.60059,2470.413,2022-3-24T22:30:44Z
2022-03-24T20:32:11Z,42.805,6.029,13.3029,4.60072,2470.45,2022-3-24T22:33:48Z
2022-03-24T20:35:14Z,42.805,6.029,13.3028,4.60061,2470.45,2022-3-24T22:36:51Z
2022-03-24T20:38:17Z,42.805,6.029,13.3030,4.60054,2470.45,2022-3-24T22:39:54Z
2022-03-24T20:41:20Z,42.805,6.029,13.3043,4.60061,2470.45,2022-3-24T22:42:57Z
2022-03-24T20:44:23Z,42.805,6.029,13.3048,4.60055,2470.437,2022-3-24T22:46:00Z
2022-03-24T20:47:27Z,42.805,6.029,13.3048,4.60062,2470.474,2022-3-24T22:49:03Z
2022-03-24T20:50:30Z,42.805,6.029,13.3051,4.60095,2470.437,2022-3-24T22:52:06Z
2022-03-24T20:53:33Z,42.805,6.029,13.3064,4.60109,2470.46,2022-3-24T22:55:09Z
2022-03-24T20:56:36Z,42.805,6.029,13.3063,4.60115,2470.437,2022-3-24T22:58:13Z
2022-03-24T20:59:39Z,42.805,6.029,13.3067,4.60099,2470.474,2022-3-24T23:01:16Z
2022-03-24T21:02:42Z,42.805,6.029,13.3071,4.60068,2470.437,2022-3-24T23:04:19Z
2022-03-24T21:05:45Z,42.805,6.029,13.3069,4.60064,2470.45,2022-3-24T23:07:22Z
2022-03-24T21:08:48Z,42.805,6.029,13.3066,4.60084,2470.497,2022-3-24T23:10:25Z
2022-03-24T21:11:52Z,42.805,6.029,13.3073,4.60096,2470.497,2022-3-24T23:13:28Z
2022-03-24T21:14:55Z,42.805,6.029,13.3069,4.60062,2470.474,2022-3-24T23:16:31Z
2022-03-24T21:17:58Z,42.805,6.029,13.3058,4.60062,2470.483,2022-3-24T23:19:34Z
2022-03-24T21:21:01Z,42.805,6.029,13.3063,4.60057,2470.474,2022-3-24T23:22:38Z
2022-03-24T21:24:04Z,42.805,6.029,13.3085,4.60058,2470.497,2022-3-24T23:25:41Z
2022-03-24T21:27:07Z,42.805,6.029,13.3057,4.60065,2470.474,2022-3-24T23:28:44Z
2022-03-24T21:30:10Z,42.805,6.029,13.3019,4.60081,2470.497,2022-3-24T23:31:47Z
2022-03-24T21:33:13Z,42.805,6.029,13.3039,4.60095,2470.483,2022-3-24T23:34:50Z
2022-03-24T21:36:17Z,42.805,6.029,13.3043,4.60101,2470.497,2022-3-24T23:37:53Z
2022-03-24T21:39:20Z,42.805,6.029,13.3038,4.60084,2470.497,2022-3-24T23:40:56Z
2022-03-24T21:42:23Z,42.805,6.029,13.3038,4.60097,2470.497,2022-3-24T23:43:59Z
2022-03-24T21:45:26Z,42.805,6.029,13.3036,4.60116,2470.483,2022-3-24T23:47:03Z
2022-03-24T21:48:29Z,42.805,6.029,13.3044,4.60081,2470.497,2022-3-24T23:50:06Z
2022-03-24T21:51:32Z,42.805,6.029,13.3048,4.60078,2470.52,2022-3-24T23:53:09Z
2022-03-24T21:54:35Z,42.805,6.029,13.3050,4.60095,2470.497,2022-3-24T23:56:12Z
2022-03-24T21:57:38Z,42.805,6.029,13.3054,4.60078,2470.483,2022-3-24T23:59:15Z
2022-03-24T22:00:42Z,42.805,6.029,13.3031,4.60092,2470.497,2022-3-25T00:02:18Z
2022-03-24T22:03:45Z,42.805,6.029,13.3044,4.60066,2470.507,2022-3-25T00:05:21Z
2022-03-24T22:06:48Z,42.805,6.029,13.3046,4.60079,2470.544,2022-3-25T00:08:24Z
2022-03-24T22:09:51Z,42.805,6.029,13.3045,4.60064,2470.497,2022-3-25T00:11:28Z
2022-03-24T22:12:54Z,42.805,6.029,13.3046,4.60080,2470.52,2022-3-25T00:14:31Z
2022-03-24T22:15:57Z,42.805,6.029,13.3036,4.60083,2470.497,2022-3-25T00:17:34Z
2022-03-24T22:19:00Z,42.805,6.029,13.3034,4.60104,2470.507,2022-3-25T00:20:37Z
2022-03-24T22:22:03Z,42.805,6.029,13.3039,4.60057,2470.507,2022-3-25T00:23:40Z
2022-03-24T22:25:07Z,42.805,6.029,13.3021,4.60079,2470.544,2022-3-25T00:26:43Z
2022-03-24T22:28:10Z,42.805,6.029,13.3031,4.60112,2470.52,2022-3-25T00:29:46Z
2022-03-24T22:31:13Z,42.805,6.029,13.3031,4.60176,2470.53,2022-3-25T00:32:49Z
2022-03-24T22:34:16Z,42.805,6.029,13.3024,4.60084,2470.52,2022-3-25T00:35:53Z
2022-03-24T22:37:19Z,42.805,6.029,13.3039,4.60089,2470.507,2022-3-25T00:38:56Z
2022-03-24T22:40:22Z,42.805,6.029,13.3015,4.60129,2470.544,2022-3-25T00:41:59Z
2022-03-24T22:43:25Z,42.805,6.029,13.3032,4.60111,2470.544,2022-3-25T00:45:02Z
2022-03-24T22:46:28Z,42.805,6.029,13.3043,4.60130,2470.53,2022-3-25T00:48:05Z
2022-03-24T22:49:32Z,42.805,6.029,13.3046,4.60092,2470.497,2022-3-25T00:51:08Z
2022-03-24T22:52:35Z,42.805,6.029,13.3029,4.60127,2470.507,2022-3-25T00:54:11Z
2022-03-24T22:55:38Z,42.805,6.029,13.3029,4.60121,2470.52,2022-3-25T00:57:14Z
2022-03-24T22:58:41Z,42.805,6.029,13.3024,4.60116,2470.52,2022-3-25T01:00:18Z
2022-03-24T23:01:44Z,42.805,6.029,13.3019,4.60122,2470.497,2022-3-25T01:03:21Z
2022-03-24T23:04:47Z,42.805,6.029,13.3040,4.60144,2470.544,2022-3-25T01:06:24Z
2022-03-24T23:07:50Z,42.805,6.029,13.3026,4.60074,2470.52,2022-3-25T01:09:27Z
2022-03-24T23:10:53Z,42.805,6.029,13.3036,4.60078,2470.493,2022-3-25T01:12:30Z
2022-03-24T23:13:57Z,42.805,6.029,13.3023,4.60093,2470.544,2022-3-25T01:15:33Z
2022-03-24T23:17:00Z,42.805,6.029,13.3009,4.60130,2470.507,2022-3-25T01:18:36Z
2022-03-24T23:20:03Z,42.805,6.029,13.3019,4.60110,2470.52,2022-3-25T01:21:39Z
2022-03-24T23:23:06Z,42.805,6.029,13.3028,4.60079,2470.52,2022-3-25T01:24:43Z
2022-03-24T23:26:09Z,42.805,6.029,13.3028,4.60068,2470.483,2022-3-25T01:27:46Z
2022-03-24T23:29:12Z,42.805,6.029,13.3029,4.60076,2470.52,2022-3-25T01:30:49Z
2022-03-24T23:32:15Z,42.805,6.029,13.3030,4.60113,2470.53,2022-3-25T01:33:52Z
2022-03-24T23:35:18Z,42.805,6.029,13.3061,4.60123,2470.52,2022-3-25T01:36:55Z
2022-03-24T23:38:21Z,42.805,6.029,13.3065,4.60146,2470.507,2022-3-25T01:39:58Z
2022-03-24T23:41:25Z,42.805,6.029,13.3022,4.60099,2470.53,2022-3-25T01:43:01Z
2022-03-24T23:44:28Z,42.805,6.029,13.3044,4.60116,2470.483,2022-3-25T01:46:04Z
2022-03-24T23:47:31Z,42.805,6.029,13.3031,4.60155,2470.544,2022-3-25T01:49:07Z
2022-03-24T23:50:34Z,42.805,6.029,13.3036,4.60173,2470.52,2022-3-25T01:52:11Z
2022-03-24T23:53:37Z,42.805,6.029,13.3018,4.60130,2470.52,2022-3-25T01:55:14Z
2022-03-24T23:56:40Z,42.805,6.029,13.3034,4.60170,2470.507,2022-3-25T01:58:17Z
2022-03-24T23:59:43Z,42.805,6.029,13.3043,4.60076,2470.53,2022-3-25T02:01:20Z
